Retour au catalogue

COSMOS 2201

ActifNavigationPO
NORAD 22038·PAYLOAD·🇷🇺 Russia

Lancé Jul 13, 1992 depuis Plesetsk Cosmodrome

Loading…

Prochains Passages (prochaines 24 heures)

TLE

FraisSource: Space-Track

Époque: Sep 14, 2026, 06:56 UTC

1 22038U 92042E   26257.28893677  .00000015  00000-0  25098-4 0  9998
2 22038  82.5922 203.7424 0009920 112.0352  55.0679 12.61788123573535

Suivez COSMOS 2201 en temps réel avec AllMySat

Download on the App Store